Flag for Norway Weather past 2 weeks in Kongsvinger, Norway

Now
48 °F

Rain showers. Broken clouds.


Feels Like: 43 °F
Forecast: 41 / 47 °F
Wind: 14 mph from South

Location: Oslo Gardermoen Airport

Current Time: May 29, 2015 at 5:02:28 PM

Latest Report: May 29, 2015 at 4:20 PM


Visibility: N/A

Pressure: 29.53 "Hg

Humidity: 66%

Dew point: 37 °F

Location of KongsvingerLocation

Historic Weather in Kongsvinger — Graph

°F

Kongsvinger temperature yesterday

Maximum temperature yesterday: 48 °F (at 10:50 AM)
Minimum temperature yesterday: 37 °F (at 4:20 AM)
Average temperature yesterday: 45 °F

Past Weeks' High & Low Weather Summary

 TemperatureHumidityPressure
High61 °F (May 23, 4:20 PM)100% (May 18, 1:50 AM)30.01 "Hg (May 18, 1:50 AM)
Low32 °F (May 21, 4:50 AM)25% (May 23, 6:50 PM)29.39 "Hg (May 28, 11:50 PM)
Average47 °F68%29.75 "Hg
* Reported May 14 3:20 PM — May 29 3:50 PM, Kongsvinger, Weather by CustomWeather, © 2015

Note: Actual official high and low records may vary slightly from our data, if they occured in-between our weather recording intervals... More about our weather records

Advertising

Kongsvinger weather history for previous 24 hours

 ConditionsComfort  
Time TempWeatherWind HumidityBarometerVisibility
3:50 PM
Fri, May 29
48 °FRain showers. Broken clouds.15 mph66%29.56 "HgN/A
3:20 PM52 °FSprinkles. Partly sunny.9 mph50%29.53 "HgN/A
2:50 PM52 °FSprinkles. Partly sunny.12 mph50%29.53 "HgN/A
2:20 PM54 °FScattered showers. Partly sunny.20 mph47%29.53 "HgN/A
1:50 PM55 °FSprinkles. Partly sunny.15 mph47%29.50 "HgN/A
1:20 PM54 °FLight rain. Scattered clouds.14 mph47%29.50 "HgN/A
12:50 PM54 °FPassing clouds.14 mph44%29.50 "HgN/A
12:20 PM54 °FScattered clouds.13 mph47%29.50 "HgN/A
11:50 AM54 °FScattered clouds.9 mph47%29.50 "HgN/A
11:20 AM52 °FScattered clouds.12 mph50%29.50 "HgN/A
10:50 AM52 °FScattered clouds.14 mph54%29.50 "HgN/A
10:20 AM50 °FPassing clouds.10 mph58%29.47 "HgN/A
9:50 AM48 °FScattered clouds.15 mph58%29.47 "HgN/A
9:20 AM46 °FScattered clouds.13 mph71%29.47 "HgN/A
8:50 AM46 °FScattered clouds.12 mph71%29.47 "HgN/A
8:20 AM46 °FPassing clouds.9 mph71%29.45 "HgN/A
7:50 AM45 °FSunny.13 mph76%29.45 "Hg10 mi
7:20 AM45 °FScattered clouds.14 mph81%29.45 "HgN/A
6:50 AM41 °FSunny.13 mph93%29.45 "Hg10 mi
6:20 AM41 °FSunny.10 mph93%29.42 "Hg10 mi
5:50 AM41 °FPassing clouds.9 mph87%29.42 "HgN/A
5:20 AM41 °FLight rain. Partly sunny.8 mph87%29.42 "HgN/A
4:50 AM41 °FLight rain. Passing clouds.10 mph87%29.42 "HgN/A
4:20 AM43 °FPassing clouds.9 mph87%29.39 "HgN/A
3:50 AM43 °FLight rain. Passing clouds.10 mph93%29.39 "HgN/A
3:20 AM43 °FLight rain. Passing clouds.8 mph93%29.39 "HgN/A
2:50 AM43 °FPassing clouds.9 mph93%29.39 "HgN/A
2:20 AM43 °FSprinkles. Passing clouds.8 mph93%29.39 "HgN/A
1:50 AM43 °FSprinkles. Partly cloudy.9 mph87%29.39 "HgN/A
1:20 AM45 °FPartly cloudy.7 mph87%29.39 "HgN/A
11:50 PM
Thu, May 28
46 °FPartly cloudy.10 mph87%29.39 "HgN/A
11:20 PM45 °FPartly cloudy.12 mph93%29.42 "HgN/A
10:50 PM45 °FLight rain. Broken clouds.10 mph93%29.42 "HgN/A
10:20 PM46 °FLight rain. Partly sunny.9 mph87%29.42 "HgN/A
9:50 PM46 °FPartly sunny.9 mph87%29.42 "HgN/A
9:20 PM46 °FLight rain. Partly sunny.10 mph87%29.42 "HgN/A
8:50 PM46 °FPartly sunny.10 mph93%29.45 "HgN/A
8:20 PM46 °FPartly sunny.10 mph93%29.45 "HgN/A
7:50 PM46 °FSprinkles. Broken clouds.13 mph93%29.45 "HgN/A
7:20 PM46 °FLight rain. Partly sunny.12 mph93%29.45 "HgN/A
6:50 PM48 °FMostly cloudy.13 mph87%29.47 "HgN/A
6:20 PM46 °FLight rain. Mostly cloudy.7 mph93%29.47 "HgN/A
5:50 PM46 °FLight rain. More clouds than sun.6 mph93%29.47 "Hg6 mi
5:20 PM46 °FLight rain. More clouds than sun.9 mph87%29.50 "HgN/A
Weather by CustomWeather, © 2015

See weather overviewHow to use our weather pages